Weather History for Valparaiso, FL

Change the Weather History Date:

Thursday, October 13, 2011

  Actual Average Record
Temperature  
Mean Temperature 72 °F -  
Max Temperature 82 °F 82 °F 94 °F (1982)
Min Temperature 61 °F 53 °F 41 °F (1951)
Cooling Degree Days 6    
Growing Degree Days 22 (Base 50)    
Moisture  
Dew Point 64 °F    
Average Humidity 80    
Maximum Humidity 100    
Minimum Humidity 58    
Precipitation  
Precipitation 0.01 in - - ()
Sea Level Pressure  
Sea Level Pressure 29.78 in    
Wind  
Wind Speed 5 mph (West)    
Max Wind Speed 15 mph    
Max Gust Speed 24 mph    
Visibility 10 miles    
Events Rain    
Averages and records for this station are not official NWS values.
T = Trace of Precipitation, MM = Missing Value Source: NWS Daily Summary

Daily Weather History Graph

Daily Weather History Graph

Search for Another Location

Airport:

Trip Planner

Search our weather history database for the weather conditions in past years. The results will help you decide how hot, cold, wet, or windy it might be!

Date:

Astronomy

Oct. 13, 2011 Rise Set
Actual Time 6:46 AM CDT 6:17 PM CDT
Civil Twilight 6:22 AM CDT 6:41 PM CDT
Nautical Twilight 5:54 AM CDT 7:09 PM CDT
Astronomical Twilight 5:26 AM CDT 7:37 PM CDT
Moon 7:04 PM CDT (10/13) 8:07 AM CDT (10/13)
Length of Visible Light 12h 18m
Length of Day
11h 30m
Full, 98% of the Moon is Illuminated
Oct 13
Full
Oct 19
Last Quarter
Oct 26
New
Nov 2
First Quarter
Nov 10
Full

Hourly Weather History & Observations

Time (CDT) Temp. Heat Index Dew Point Humidity Pressure Visibility Wind Dir Wind Speed Gust Speed Precip Events Conditions
12:55 AM 62.6 °F - 61.5 °F 96% 29.83 in 10.0 mi NNE 3.5 mph - N/A   Scattered Clouds
1:55 AM 61.7 °F - 60.3 °F 95% 29.81 in 10.0 mi NW 2.3 mph - N/A   Partly Cloudy
2:55 AM 61.2 °F - 59.7 °F 95% 29.81 in 10.0 mi WNW 2.3 mph - N/A   Partly Cloudy
3:55 AM 62.6 °F - 60.4 °F 93% 29.80 in 10.0 mi Calm Calm - N/A   Mostly Cloudy
4:22 AM 62.6 °F - 60.8 °F 94% 29.78 in 10.0 mi ESE 1.2 mph - N/A Rain Light Rain
4:52 AM 64.4 °F - 62.6 °F 94% 29.78 in 10.0 mi Variable 1.2 mph - N/A   Mostly Cloudy
4:55 AM 64.6 °F - 63.1 °F 95% 29.78 in 10.0 mi Calm Calm - 0.00 in   Mostly Cloudy
5:55 AM 61.7 °F - 61.3 °F 99% 29.79 in 10.0 mi NW 1.2 mph - N/A   Partly Cloudy
6:55 AM 61.2 °F - 61.2 °F 100% 29.80 in 10.0 mi Calm Calm - N/A   Partly Cloudy
7:55 AM 68.0 °F - 66.4 °F 95% 29.80 in 10.0 mi Calm Calm - N/A   Partly Cloudy
8:58 AM 72.7 °F - 67.6 °F 84% 29.81 in 10.0 mi WSW 6.9 mph - N/A   Scattered Clouds
9:57 AM 77.0 °F - 67.3 °F 72% 29.81 in 10.0 mi SW 8.1 mph - N/A   Scattered Clouds
10:58 AM 80.2 °F 82.3 °F 66.0 °F 62% 29.79 in 10.0 mi Variable 6.9 mph - N/A   Scattered Clouds
11:57 AM 81.1 °F 83.7 °F 67.3 °F 63% 29.78 in 10.0 mi SW 11.5 mph - N/A   Scattered Clouds
12:55 PM 82.2 °F 84.7 °F 67.1 °F 60% 29.75 in 10.0 mi West 9.2 mph 18.4 mph N/A   Scattered Clouds
1:56 PM 81.7 °F 83.6 °F 65.5 °F 58% 29.73 in 10.0 mi WSW 15.0 mph 24.2 mph N/A   Scattered Clouds
2:55 PM 79.9 °F - 68.0 °F 67% 29.71 in 10.0 mi SW 13.8 mph 20.7 mph N/A   Scattered Clouds
3:55 PM 79.7 °F - 68.7 °F 69% 29.70 in 10.0 mi SW 11.5 mph - N/A   Scattered Clouds
4:24 PM 80.6 °F 83.9 °F 69.8 °F 70% 29.68 in 10.0 mi WSW 12.7 mph 24.2 mph N/A   Scattered Clouds
4:55 PM 78.4 °F - 69.6 °F 74% 29.70 in 10.0 mi WSW 12.7 mph 20.7 mph N/A   Scattered Clouds
5:55 PM 77.0 °F - 69.1 °F 76% 29.72 in 10.0 mi WSW 9.2 mph - N/A   Partly Cloudy
6:55 PM 74.5 °F - 68.9 °F 83% 29.73 in 10.0 mi West 4.6 mph - N/A   Partly Cloudy
7:55 PM 71.1 °F - 67.6 °F 89% 29.76 in 10.0 mi West 4.6 mph - N/A   Clear
8:55 PM 68.0 °F - 61.0 °F 78% 29.79 in 10.0 mi NW 4.6 mph - N/A   Clear
9:55 PM 68.5 °F - 55.2 °F 62% 29.82 in 10.0 mi NW 4.6 mph - N/A   Clear
10:55 PM 68.2 °F - 55.8 °F 64% 29.84 in 10.0 mi NNW 5.8 mph - N/A   Clear
11:55 PM 66.7 °F - 56.3 °F 69% 29.85 in 10.0 mi NW 3.5 mph - N/A   Clear